Wind_Speed
9 9 9 10 10 10 10 10 10 11 11 11 11 11 12 12 12 11 11 11 11 12 12 12 13 13 15 16 16 17 17 17 17 14 7 3 3 3 4 6 6 4 6 8 10 11 13 13 13 12 11 10 10 12 11 10 9 5 2 2 4 4 2 4 4 2 1 5 7 11 12 8 12 16 14 7 3 5 5 6 4 3 4 8 7 19 29 25
9 9 9 10 10 10 10 10 10 10 11 11 11 11 11 12 12 12 12 12 11 12 12 13 13 14 15 16 17 17 17 17 14 4 5 4 3 3 3 5 6 4 4 6 9 10 12 13 14 14 12 10 9 11 9 9 8 3 1 3 4 2 1 2 2 1 2 7 10 10 10 10 11 11 12 9 3 2 3 5 6 9 10 9 11 23 28 25
9 9 10 10 10 10 10 10 10 10 11 11 11 11 11 11 12 12 12 12 12 13 13 13 13 14 15 15 17 17 17 16 6 6 6 5 4 4 3 5 6 4 5 5 7 8 8 9 12 14 13 9 8 10 8 8 8 2 2 5 3 2 1 2 3 4 6 9 10 10 12 12 11 10 11 8 4 3 4 5 7 10 13 13 18 27 27 25
9 9 10 10 10 10 10 10 10 10 10 11 11 11 12 12 12 12 12 12 13 13 13 14 14 14 15 16 16 15 17 11 3 5 3 5 6 6 3 4 6 6 8 8 8 8 8 8 11 14 12 6 5 9 7 7 7 3 4 3 3 2 1 1 5 9 12 11 7 10 13 12 12 12 9 6 6 3 4 8 10 13 17 18 23 28 26 25
9 9 10 10 11 11 11 10 10 11 11 11 11 11 12 12 12 12 12 12 13 13 14 14 14 15 16 16 16 16 14 4 4 2 2 3 6 5 3 6 7 7 9 9 10 10 8 10 13 14 9 4 5 6 4 8 6 3 6 3 3 2 4 4 9 12 14 13 9 9 10 12 15 12 8 7 6 2 1 8 12 15 18 20 27 29 24 24
9 9 10 11 11 11 11 11 11 11 11 11 11 11 12 12 12 12 12 12 13 13 14 14 14 15 15 16 16 14 9 1 2 6 6 4 4 4 5 6 6 7 8 8 9 10 10 13 14 12 7 3 5 5 5 10 8 5 6 2 3 4 5 6 12 14 15 13 8 8 10 13 13 10 9 7 7 6 3 6 11 16 18 20 27 28 26 25
9 10 10 11 11 12 12 11 11 11 11 11 11 11 12 12 13 13 13 13 13 13 14 14 14 15 15 16 15 13 10 8 7 8 7 5 2 3 5 6 5 6 7 6 8 10 12 15 15 12 7 3 4 5 7 11 9 8 4 1 3 5 6 10 13 15 16 14 13 13 13 11 8 8 9 7 9 9 6 5 11 16 18 21 26 26 27 25
10 11 11 12 12 13 12 12 12 12 12 12 12 12 12 12 13 13 13 13 13 13 14 14 14 15 15 15 14 14 13 8 5 5 4 3 3 4 5 5 5 5 4 4 5 8 12 15 16 12 6 2 6 8 8 8 7 9 6 1 4 7 9 12 13 16 17 17 15 12 11 10 8 9 9 9 9 5 5 8 13 17 19 23 23 23 24 24
11 12 12 13 13 13 13 13 13 13 13 12 12 12 12 12 13 14 14 14 14 14 14 15 14 15 15 14 13 11 9 4 3 4 2 2 4 5 5 4 4 4 3 4 4 7 11 15 17 12 5 4 8 10 9 7 5 6 8 6 7 8 9 11 12 16 17 15 9 7 10 9 7 7 6 6 4 4 9 13 16 18 21 23 21 21 24 25
11 12 13 14 14 14 14 14 14 14 14 14 13 13 13 13 13 14 15 14 15 14 14 15 14 14 14 14 9 5 5 5 4 2 2 1 5 6 5 4 2 2 2 3 4 6 9 11 14 11 5 6 9 7 8 7 3 3 6 7 8 9 10 9 10 14 15 12 8 8 9 5 2 3 3 1 3 9 14 15 16 19 23 23 21 21 23 26
12 13 13 14 15 15 15 14 14 14 14 14 14 14 14 13 14 14 14 15 15 15 15 15 14 14 14 13 8 5 7 7 3 2 2 2 7 7 6 4 2 2 2 2 1 3 7 8 11 9 4 7 8 5 6 5 4 5 4 5 6 6 8 6 9 13 10 9 9 8 6 2 1 3 3 1 7 13 16 17 17 20 21 22 21 20 25 28
13 14 14 15 15 15 15 15 14 14 14 14 14 14 14 14 14 14 14 14 15 15 15 15 15 15 15 15 13 8 7 7 6 6 3 4 6 7 7 6 3 2 1 2 1 1 4 8 13 8 3 7 7 3 3 2 3 6 4 4 3 3 4 2 5 8 4 7 8 5 5 3 3 4 2 3 11 14 16 18 18 20 20 21 20 20 26 29
15 15 15 15 16 16 15 15 15 14 14 14 14 14 14 14 14 14 14 14 14 15 15 15 14 16 15 13 11 8 7 9 9 9 8 8 8 7 6 5 4 3 2 2 2 2 4 10 14 8 3 6 3 1 0 3 3 4 1 1 3 3 3 0 1 4 3 6 4 4 5 4 4 5 1 7 13 14 16 17 18 20 19 20 20 20 26 28
16 16 16 16 16 16 15 15 15 15 14 14 14 14 14 14 14 14 14 14 14 14 15 15 15 16 14 12 11 11 13 13 12 10 12 12 11 9 8 6 5 5 3 2 3 3 5 12 13 8 4 3 0 2 1 2 1 2 1 1 1 2 2 2 1 2 1 3 1 7 5 5 3 5 1 11 14 15 16 16 18 20 20 20 20 21 25 28
16 16 17 17 16 15 15 15 15 15 14 13 13 14 14 14 14 14 13 13 13 14 15 15 15 14 14 15 12 9 8 7 6 4 9 16 14 12 10 8 7 5 3 3 4 3 6 14 11 6 4 2 0 1 1 1 2 1 2 2 1 1 2 4 1 1 2 3 2 5 4 4 4 4 4 13 13 14 15 15 17 19 20 20 20 21 24 26
17 17 17 17 16 15 15 15 15 14 14 13 13 14 14 14 14 12 12 12 12 13 12 12 12 10 10 9 4 3 1 2 4 4 2 10 15 15 11 9 8 6 3 4 5 4 7 13 9 4 4 2 1 0 1 1 0 2 2 2 1 1 1 2 1 2 3 2 3 1 2 3 2 2 6 12 13 14 14 15 18 18 20 21 21 22 22 25
17 17 17 17 16 15 15 15 14 14 13 13 13 13 13 12 12 10 10 9 9 10 10 10 8 8 8 6 3 3 3 6 6 5 4 2 10 16 14 11 9 8 6 6 7 7 8 10 7 4 2 0 1 1 1 3 3 1 1 2 1 1 1 1 1 2 5 3 3 3 2 6 6 1 5 10 14 15 14 16 18 19 20 21 22 22 22 25
16 17 16 16 16 15 15 14 14 13 12 12 11 11 11 10 9 9 8 6 5 4 6 7 4 3 7 7 5 5 7 6 3 4 3 1 7 15 16 12 8 8 9 7 7 8 7 6 4 3 2 1 3 3 4 2 2 3 1 2 2 2 2 1 2 2 6 5 4 3 3 8 11 4 6 10 14 15 17 17 18 19 20 21 23 24 24 25
16 16 15 15 15 15 14 14 13 12 11 10 10 8 7 7 7 7 5 5 4 3 4 6 6 3 5 4 4 7 7 5 3 4 5 3 7 14 14 11 8 10 9 5 5 6 6 4 3 4 4 4 5 5 6 3 3 4 2 2 3 3 3 2 3 4 4 6 7 8 7 7 10 8 5 9 13 16 17 17 17 19 20 22 23 25 26 25
16 15 15 15 14 14 14 13 12 11 9 8 7 5 5 5 4 3 6 11 13 11 12 12 12 14 16 11 6 6 6 6 6 6 4 4 7 13 14 11 8 8 5 3 3 4 5 4 3 5 5 4 5 6 5 3 4 4 1 3 4 6 4 2 3 6 3 4 7 7 6 6 8 11 7 6 10 13 16 17 18 19 21 23 25 25 26 26
15 14 14 14 14 14 13 13 11 9 8 7 4 1 1 3 1 2 8 14 14 13 16 17 18 23 23 16 11 10 8 8 8 7 5 4 6 11 13 10 6 4 2 2 4 3 4 5 5 5 5 5 5 5 5 4 3 2 3 3 4 6 3 1 4 6 2 3 5 3 4 7 9 12 9 4 8 11 16 18 20 22 23 24 25 27 26 27
14 14 14 14 13 13 13 13 10 8 7 4 1 2 2 1 2 5 8 10 14 15 14 15 19 26 26 22 22 20 12 7 10 11 10 7 7 9 11 8 4 3 2 3 4 3 3 5 6 5 4 5 4 4 6 4 3 3 2 2 5 4 3 3 4 2 2 3 4 2 4 9 10 13 11 4 7 12 16 19 21 24 24 24 25 27 27 27
14 14 14 14 12 12 12 12 10 8 5 1 2 4 4 3 4 8 8 8 12 14 10 9 15 20 20 18 19 19 14 10 12 14 15 14 11 10 12 8 5 4 3 5 6 4 3 4 5 6 6 6 4 4 5 3 2 3 3 4 5 1 1 4 2 0 2 3 6 6 6 9 9 10 8 3 4 9 14 18 21 22 24 26 25 27 30 30
14 14 14 14 12 11 11 11 9 6 3 2 4 6 4 4 5 7 7 6 6 8 6 4 7 10 9 9 9 13 16 14 13 14 16 18 16 12 12 9 6 5 5 8 8 6 4 2 2 6 7 7 5 4 5 3 3 3 4 6 5 2 5 7 3 3 4 3 4 5 6 5 5 5 3 3 1 5 8 13 19 21 23 25 23 26 29 31
15 15 14 14 12 11 11 10 7 3 2 2 5 6 4 5 5 7 5 3 3 4 4 2 2 3 4 2 3 9 11 12 17 17 14 19 19 12 7 8 7 6 8 7 5 6 5 3 7 7 4 6 5 4 6 5 4 3 5 9 9 8 9 7 1 3 5 2 2 1 4 2 1 3 3 1 2 3 2 5 13 17 20 21 22 26 28 29
15 15 14 13 12 11 9 6 3 2 2 3 6 5 4 4 4 6 2 1 2 2 1 1 1 3 4 1 5 8 6 4 12 15 13 17 20 14 6 6 4 4 7 6 3 3 2 5 8 6 5 6 5 4 5 6 4 3 3 8 11 11 8 4 3 2 3 1 1 1 4 4 2 3 3 4 5 4 0 2 5 9 15 20 23 26 27 29
15 14 13 12 12 12 8 4 4 4 3 5 6 5 3 3 3 3 2 1 1 1 1 1 1 4 6 2 7 9 3 2 4 7 15 18 18 16 8 5 4 2 5 4 2 2 2 5 6 5 6 5 5 5 5 7 5 2 2 6 8 8 7 6 6 5 3 3 1 1 2 5 5 2 1 4 7 6 1 3 5 4 9 16 22 25 26 30
15 14 12 11 12 12 9 5 5 5 5 7 6 4 3 3 2 1 1 1 1 1 2 1 1 5 9 1 11 9 3 4 3 2 15 20 16 11 7 8 8 5 6 5 4 2 3 6 8 7 6 4 5 5 6 10 6 3 3 4 5 5 5 6 5 4 1 2 4 2 3 4 5 2 1 2 5 5 5 7 8 7 5 12 19 24 25 28
14 13 12 11 11 10 9 7 4 3 7 8 5 4 3 2 1 0 1 1 1 2 3 0 2 4 9 2 10 11 6 4 2 1 10 17 16 7 4 7 7 6 5 5 4 1 2 4 7 8 6 6 7 4 8 13 7 1 5 4 2 3 2 3 3 3 2 2 5 3 4 4 5 2 2 1 2 4 7 9 9 10 7 9 15 19 20 20
13 12 11 11 10 8 8 7 4 3 7 8 6 4 3 2 1 1 1 1 1 2 3 2 0 4 7 3 3 6 6 4 1 4 7 10 12 6 3 6 7 5 2 2 3 0 2 0 2 5 6 5 5 3 6 10 5 3 5 4 3 3 2 1 1 1 3 4 4 3 6 5 4 3 2 1 2 4 8 9 10 11 9 6 10 13 14 13
12 11 10 10 9 8 7 5 3 3 6 7 5 5 5 3 1 2 1 1 1 3 4 2 1 4 5 3 2 1 3 4 2 6 6 5 7 5 5 6 5 3 2 2 3 1 1 0 1 4 7 3 3 3 3 3 3 2 1 2 1 1 2 1 2 2 4 4 1 1 3 4 5 3 1 2 4 6 8 10 11 10 7 4 5 7 9 13
11 10 9 9 8 7 6 4 2 4 6 6 5 6 6 2 1 2 1 2 1 2 3 2 3 5 6 3 2 2 1 2 3 5 5 4 6 5 4 4 4 3 3 4 3 1 2 4 2 3 5 6 4 3 2 2 3 4 2 2 2 2 2 2 2 2 4 3 1 0 2 2 6 3 4 4 6 7 8 9 9 8 6 3 3 7 9 15
9 8 8 7 6 4 4 3 2 5 7 5 5 5 4 1 2 2 1 2 1 2 2 3 5 7 6 3 1 2 1 1 3 4 3 4 6 5 1 1 3 3 1 2 2 1 2 3 2 2 3 8 8 5 4 3 5 7 5 4 4 3 2 2 2 1 4 1 2 1 2 2 4 0 4 5 6 7 8 7 6 6 3 4 5 10 12 15
7 7 5 3 2 2 3 3 2 6 7 6 4 4 2 1 2 0 1 1 1 2 3 3 6 7 2 0 3 3 1 1 1 4 3 4 5 5 2 1 3 2 2 2 1 3 3 3 4 5 2 6 12 10 5 3 5 6 4 3 4 3 2 3 3 3 4 1 3 2 3 3 2 2 3 5 5 6 7 7 9 10 8 10 11 10 9 11
5 5 2 1 1 3 4 1 5 8 9 7 3 2 2 2 1 1 0 2 2 3 4 3 3 3 2 0 3 3 1 1 2 2 3 3 5 5 4 4 4 2 3 3 1 1 2 4 4 3 0 5 10 7 4 4 3 2 2 2 2 3 2 0 0 0 1 1 2 1 2 2 1 2 3 2 3 7 9 10 12 13 11 12 13 13 11 8
4 2 4 3 3 4 4 3 7 9 10 7 3 1 2 1 1 2 1 1 1 3 6 4 1 1 3 2 2 3 2 1 2 1 2 1 2 4 3 2 4 4 4 4 2 1 1 2 1 1 2 6 6 4 5 5 3 3 3 4 1 0 2 2 1 2 1 3 1 1 2 2 1 1 3 3 4 7 9 10 12 11 10 12 12 12 13 12
2 3 5 4 4 5 7 6 6 9 9 5 2 1 2 1 1 2 0 1 1 2 2 2 2 2 2 2 2 4 5 2 1 1 2 1 1 3 2 2 4 7 7 4 2 2 2 2 1 2 3 3 2 2 3 1 2 4 3 3 3 1 1 1 1 1 1 4 1 1 2 3 2 0 2 3 5 7 8 8 10 10 9 10 11 10 13 16
2 5 6 5 4 6 7 8 6 7 6 2 1 1 1 0 1 2 1 1 1 1 1 1 1 2 2 1 2 4 5 2 2 1 2 1 1 2 1 1 4 4 5 4 3 2 2 3 2 2 2 1 1 2 3 2 1 0 1 2 2 2 2 2 2 1 2 3 1 1 1 3 3 2 3 4 4 6 6 6 7 7 7 9 11 12 14 14
6 7 6 5 5 5 5 6 5 4 3 1 1 0 0 2 3 4 3 1 1 1 0 1 1 1 1 1 2 2 3 2 2 1 1 1 1 1 1 0 2 1 1 4 4 1 1 3 2 1 2 1 1 1 2 3 3 1 1 2 0 2 1 2 2 1 2 3 1 1 1 2 2 2 4 4 4 6 7 6 6 5 5 7 9 11 12 8
8 6 4 6 6 4 3 4 4 2 2 1 1 0 0 2 3 5 6 3 2 2 1 1 1 1 2 2 2 1 1 1 1 1 1 0 1 1 1 2 1 2 1 4 4 1 1 2 3 1 2 2 0 0 1 2 3 2 4 4 2 1 0 1 1 1 1 2 2 2 2 1 1 1 3 3 3 6 7 7 8 7 5 6 8 9 8 6
8 4 3 6 7 3 2 4 3 2 1 0 1 0 1 2 2 5 7 4 4 4 2 2 2 1 2 2 1 1 2 2 1 1 0 0 1 0 1 2 2 2 1 4 4 2 1 2 2 2 2 3 0 1 0 1 0 1 2 3 3 3 2 3 3 1 0 1 1 2 3 1 2 1 2 3 3 6 8 9 9 8 8 7 8 9 7 7
7 2 3 7 7 3 1 3 1 1 1 0 1 2 2 2 2 4 5 2 3 3 1 2 2 2 2 2 2 1 2 2 1 1 0 0 2 1 4 6 3 3 1 2 2 1 1 2 2 2 2 2 1 1 1 1 1 1 0 1 0 1 2 4 5 3 2 1 1 1 2 1 1 2 2 3 2 6 10 11 11 10 9 8 8 7 6 6
6 4 5 8 8 3 1 1 1 1 0 1 2 3 3 2 1 2 3 1 1 1 1 1 2 2 2 2 1 1 2 2 1 1 1 1 3 3 9 10 3 5 1 1 0 1 0 1 1 2 1 2 1 2 2 2 2 2 2 3 1 1 1 2 2 1 3 3 2 2 3 1 1 1 3 3 2 4 8 12 14 13 11 9 8 6 4 3
9 7 6 9 8 2 2 1 0 1 1 2 3 1 2 2 2 2 2 2 2 0 0 1 2 1 1 1 1 2 2 2 1 2 1 1 2 5 12 15 5 2 1 1 2 1 1 1 1 2 2 1 2 2 3 2 1 1 2 3 2 2 1 1 1 1 2 3 2 4 3 2 1 2 6 5 4 5 6 9 11 11 10 10 9 6 4 5
9 6 5 7 7 1 1 2 1 0 0 2 2 2 3 1 2 2 2 1 3 1 1 2 1 0 1 1 1 1 2 1 1 3 2 1 2 5 13 20 13 4 2 1 7 6 2 0 0 2 3 4 3 2 2 1 0 0 2 4 5 5 2 1 2 3 4 2 2 3 2 2 1 3 7 7 6 8 8 10 12 11 11 10 10 9 8 8
5 2 2 3 4 2 1 2 1 1 1 0 0 1 2 1 2 3 1 0 3 2 0 2 2 0 2 3 2 2 3 1 1 3 3 3 2 2 9 16 14 9 5 4 9 8 3 2 1 1 1 2 1 1 1 2 1 1 3 5 7 6 3 2 2 2 3 4 3 2 2 5 4 5 7 7 6 7 7 9 12 11 11 11 12 12 12 12
3 2 2 2 2 0 2 2 1 1 1 1 0 2 2 2 3 2 0 0 3 3 1 1 4 3 2 4 3 1 3 2 1 2 2 4 2 3 4 7 9 14 10 2 4 3 3 2 2 3 3 1 1 1 1 2 3 2 4 6 7 8 4 1 1 1 1 3 4 2 5 7 6 5 6 7 7 7 7 9 11 10 10 11 13 13 13 14
2 3 3 4 2 0 2 1 1 3 2 1 0 1 2 2 2 1 1 1 2 4 1 1 4 5 2 2 0 1 3 2 2 3 2 3 3 3 3 1 2 13 13 3 1 2 3 2 2 3 3 2 2 2 3 5 5 6 7 7 8 9 6 4 2 3 2 1 0 5 9 7 5 4 5 7 8 9 9 10 11 12 12 13 14 14 15 15
4 5 4 5 3 2 3 3 3 4 2 1 1 1 1 2 3 1 1 1 2 4 2 1 4 5 3 2 1 2 3 2 2 3 2 4 3 2 3 1 0 11 12 4 3 2 1 2 2 3 4 4 4 4 4 5 5 6 10 10 8 8 8 8 6 5 5 4 4 8 11 8 6 5 7 8 10 13 13 12 13 14 14 15 18 19 19 18
6 5 5 6 6 5 3 2 2 3 1 2 1 1 1 1 3 2 2 1 1 2 2 2 4 3 3 5 3 2 2 2 2 2 2 3 2 1 2 0 1 7 9 4 3 4 1 2 1 2 4 4 5 5 4 4 5 7 10 11 10 8 8 7 6 6 5 5 6 9 9 7 6 7 10 10 11 15 15 14 15 14 14 16 18 19 18 17
7 7 7 8 4 4 2 2 1 1 1 1 0 1 1 1 3 3 2 1 0 1 1 2 1 2 2 3 2 2 2 2 4 6 6 5 3 3 3 1 3 3 6 4 3 4 2 2 1 1 4 2 4 5 4 4 4 5 8 11 11 8 5 5 5 5 4 2 6 7 5 4 4 8 12 12 13 16 15 14 14 14 15 16 17 17 16 15
8 8 9 7 2 3 1 1 1 1 1 0 1 1 1 1 2 2 1 1 1 0 0 1 1 2 1 0 2 4 6 7 9 11 10 9 8 7 6 4 5 4 3 2 1 2 1 3 3 2 3 3 3 4 3 2 0 1 4 6 8 6 5 4 3 5 6 3 2 3 3 4 6 8 10 10 12 14 14 14 14 14 16 16 17 18 17 17
Wind_Direction
336 337 337 337 334 333 332 331 330 330 331 332 334 334 334 336 337 338 341 342 340 336 333 331 329 329 329 329 330 331 331 331 328 325 336 27 22 336 294 245 236 221 201 194 185 182 178 178 178 173 165 154 156 160 158 166 169 168 167 202 223 227 190 177 191 188 333 346 337 336 351 346 328 341 351 351 69 115 106 71 91 76 96 145 144 154 158 164
333 334 334 333 331 330 328 327 326 326 325 327 328 329 330 330 330 330 332 333 332 330 327 326 328 330 330 330 332 332 334 335 335 356 98 76 22 357 316 235 230 218 194 194 188 187 187 183 176 169 161 149 151 162 163 163 169 169 121 220 229 190 149 192 216 265 315 323 325 329 337 334 321 327 337 339 5 154 133 86 96 95 110 137 149 158 162 167
329 330 330 329 328 326 324 324 323 322 322 322 323 324 325 325 326 325 325 326 327 326 325 326 329 330 330 331 333 334 337 338 357 105 98 45 17 8 332 223 212 187 158 175 183 186 190 183 178 170 157 148 156 169 171 170 177 172 189 227 228 137 184 220 259 290 303 311 315 323 326 317 318 328 325 327 324 241 178 130 129 126 131 139 152 161 165 169
328 328 328 325 325 323 323 322 321 321 320 320 321 321 320 320 321 319 320 321 321 321 321 324 328 329 329 332 335 338 340 341 97 114 64 29 16 5 356 178 180 166 152 162 174 178 174 168 174 168 156 139 150 172 176 179 179 166 211 222 108 122 224 240 297 309 310 310 309 315 317 309 321 330 311 311 313 277 173 173 169 162 158 152 159 165 167 170
326 326 325 323 322 321 321 322 323 322 320 321 320 320 320 318 317 316 317 317 317 317 317 320 325 326 326 331 333 337 342 346 126 47 350 10 10 20 73 142 159 157 153 166 176 176 170 166 167 162 156 130 147 167 182 187 179 187 231 230 118 234 292 303 306 311 307 306 309 308 310 311 317 316 296 291 286 297 143 191 186 180 178 170 167 166 167 168
325 325 323 321 320 320 321 322 323 322 323 323 322 322 321 319 317 316 314 315 315 314 315 318 322 323 324 329 330 336 343 306 297 314 286 285 344 46 91 124 138 142 151 167 177 180 171 163 162 158 152 137 163 166 172 185 190 228 245 245 213 253 269 285 298 299 299 299 299 297 299 306 310 312 306 277 256 271 274 220 204 196 195 183 170 167 171 170
324 323 320 319 318 318 319 320 322 322 323 323 323 323 322 321 319 316 315 315 314 313 314 314 319 320 321 325 327 329 320 298 299 296 280 267 254 94 100 116 119 126 149 169 179 184 173 166 164 159 152 131 177 176 162 177 197 235 246 43 264 260 255 276 287 288 294 288 284 292 291 293 292 308 312 287 280 278 254 219 198 188 184 179 170 170 174 172
320 320 318 317 316 316 317 317 320 320 320 320 321 322 322 322 319 317 316 314 314 313 311 312 316 317 318 324 329 328 314 301 306 298 286 255 212 146 117 113 116 123 146 173 184 190 176 173 170 160 162 153 178 178 164 174 202 235 245 283 270 263 262 277 282 283 289 284 290 294 278 279 286 293 291 285 293 273 204 178 173 171 172 174 173 174 175 174
319 319 316 315 314 314 314 315 317 316 317 317 317 319 321 321 318 316 316 315 315 313 312 311 312 315 315 320 329 329 309 298 325 312 302 254 196 158 141 122 116 132 153 167 184 201 186 182 177 167 181 172 168 176 174 187 204 220 235 249 260 266 274 279 276 280 285 283 288 282 272 285 305 297 279 284 282 179 165 162 164 166 170 174 176 178 177 179
321 319 317 316 314 314 314 314 315 315 315 315 316 317 317 317 315 314 315 315 314 313 313 310 310 312 310 314 331 332 295 299 313 324 5 226 183 155 140 132 116 126 159 178 186 205 202 195 183 169 166 162 163 170 173 194 231 224 231 248 257 270 281 277 272 277 283 285 264 250 275 296 348 296 275 18 146 161 158 159 166 169 172 177 178 179 181 186
322 320 318 316 316 316 315 315 315 315 314 315 316 315 315 314 312 311 312 312 311 311 310 308 308 307 305 306 299 274 290 299 286 297 10 136 160 144 140 152 157 156 159 185 197 215 217 203 178 165 150 162 163 165 183 208 263 274 278 268 264 278 283 265 260 271 279 284 257 232 262 284 138 260 272 149 164 164 160 161 169 173 176 180 177 179 185 191
322 321 319 318 318 317 316 316 316 316 316 318 317 316 314 311 309 308 308 308 307 307 306 307 306 303 305 298 282 276 286 277 267 271 261 173 165 151 157 174 175 172 141 142 127 181 208 191 179 181 160 158 157 156 200 249 281 277 296 284 290 321 305 260 250 268 254 264 257 219 260 257 177 238 280 150 170 169 165 163 170 177 180 181 179 184 189 192
320 319 318 318 318 318 318 317 318 319 321 323 321 318 313 309 308 304 303 302 302 302 301 303 301 301 302 291 284 288 279 268 265 257 240 224 214 194 180 184 185 194 175 155 143 121 169 181 185 192 161 162 158 107 262 337 293 269 278 261 315 326 304 99 266 280 233 266 257 176 263 265 198 263 276 163 172 173 172 169 173 179 181 182 184 190 192 193
316 316 316 316 317 318 318 318 320 323 326 328 324 318 312 308 305 300 300 299 297 296 296 297 296 299 294 283 291 288 276 273 266 252 238 232 227 219 205 193 201 207 190 150 135 127 164 179 185 192 187 194 242 38 351 357 357 298 260 167 336 292 285 350 327 289 256 322 149 177 248 281 265 319 187 175 177 179 181 178 179 183 185 185 188 193 193 195
313 313 314 315 316 317 318 320 322 325 328 330 326 318 312 309 305 302 300 296 294 290 290 291 291 297 293 289 295 285 276 272 257 243 229 227 221 217 213 206 214 213 194 161 137 111 167 177 180 186 198 215 343 6 342 9 50 4 260 211 88 217 306 336 345 22 343 10 58 190 237 289 289 343 167 178 183 190 190 185 187 190 192 190 190 194 194 197
311 311 313 315 316 316 318 320 322 326 328 329 327 319 314 311 308 308 303 296 291 284 283 284 284 297 300 299 301 262 274 135 149 108 173 219 213 209 213 216 219 213 189 166 146 108 153 169 171 183 203 207 181 60 31 271 230 55 277 247 291 232 281 333 131 58 357 13 27 341 290 297 274 97 162 183 189 198 199 195 196 197 198 197 195 195 197 200
310 311 313 315 316 316 317 319 322 325 327 329 329 321 317 316 314 315 307 296 288 281 280 275 281 298 279 258 250 238 158 133 135 125 110 163 200 205 211 211 213 207 175 146 148 137 141 155 166 183 186 174 144 137 193 240 230 171 280 243 268 251 220 318 227 40 4 1 15 11 309 285 276 157 159 194 196 199 208 207 203 203 203 203 201 201 202 204
310 311 313 315 315 315 316 318 320 323 327 330 329 325 322 321 318 310 296 289 285 285 284 258 247 310 271 243 238 214 180 166 151 168 198 213 192 201 211 212 201 184 159 137 152 160 157 152 164 170 134 166 171 177 203 221 215 191 188 230 257 239 207 260 267 328 351 336 322 314 280 278 281 262 173 201 204 202 212 213 209 209 207 207 207 208 208 208
310 311 314 315 315 316 316 317 320 323 326 330 331 330 325 322 314 294 269 265 255 248 286 239 197 224 271 266 225 209 212 219 221 234 241 230 193 192 199 204 186 165 153 152 169 172 174 148 148 188 188 185 178 193 207 175 140 148 139 254 269 273 250 210 255 282 307 303 295 288 276 273 284 279 211 198 205 207 215 217 214 214 213 211 211 213 212 210
310 312 313 315 315 316 316 317 320 322 325 328 332 329 323 333 325 278 274 277 267 263 272 257 242 252 264 276 263 234 248 254 257 255 234 208 189 178 174 171 165 165 160 165 170 169 183 180 191 203 182 161 177 196 194 150 134 127 154 265 274 277 279 141 233 255 233 266 276 274 271 264 272 277 262 187 195 212 216 216 216 216 215 214 214 215 214 214
310 311 313 314 316 317 315 316 318 320 322 321 330 325 315 1 13 304 302 292 284 279 273 265 259 257 259 264 259 258 270 274 262 223 188 184 163 163 169 164 157 173 171 118 115 127 180 207 218 203 169 157 174 178 151 134 148 163 223 260 275 266 281 237 257 270 217 229 263 265 271 265 261 269 270 179 181 216 216 212 213 214 215 215 215 214 216 218
310 310 313 314 317 318 313 314 314 313 314 308 292 199 220 347 331 316 316 295 296 299 284 268 259 258 261 261 259 263 267 271 258 225 202 198 179 169 166 165 179 176 128 116 126 135 190 224 225 198 161 125 103 137 148 147 166 186 210 247 266 268 311 281 253 277 189 212 264 269 266 272 269 269 272 229 205 230 225 218 216 212 211 214 214 211 213 218
309 310 313 315 318 317 311 310 309 305 300 256 196 205 228 293 307 317 315 281 294 308 293 263 254 260 269 271 263 253 235 230 249 239 219 205 199 185 166 165 186 158 138 179 185 185 196 238 229 176 155 134 108 135 147 139 173 192 199 234 255 285 357 268 236 158 209 231 271 277 280 277 271 272 272 224 220 248 243 236 231 220 213 213 211 206 206 209
309 310 313 316 316 315 311 306 304 297 274 209 203 205 230 276 294 317 310 271 290 309 300 275 256 265 284 289 260 222 215 219 230 234 220 201 186 174 176 175 160 159 186 189 187 201 214 268 135 143 162 166 145 142 157 181 225 213 208 231 254 232 229 247 277 321 271 239 249 267 273 263 257 267 248 153 201 264 256 247 240 231 223 218 212 206 208 209
307 308 311 315 313 312 310 304 296 268 231 208 200 203 229 263 300 325 312 286 295 284 299 311 251 293 326 308 194 192 208 221 227 228 214 200 186 162 163 173 167 197 198 166 163 212 231 175 137 133 164 180 165 173 186 200 231 243 214 218 232 233 230 234 253 326 290 244 137 279 274 250 200 256 247 263 303 287 279 257 246 235 225 219 210 206 210 214
306 307 310 313 310 309 311 302 264 217 235 215 199 203 230 261 319 338 330 359 319 262 336 27 218 2 4 243 166 168 183 228 242 231 208 205 196 174 149 156 185 216 175 144 155 226 228 165 158 150 163 179 190 209 194 190 221 272 222 205 218 229 227 210 179 217 269 280 114 319 289 283 280 254 262 308 302 290 340 320 281 243 222 217 212 209 207 211
305 306 312 312 307 309 311 284 248 253 235 198 200 208 238 275 340 347 337 32 315 256 76 98 147 24 2 281 170 159 169 333 300 222 199 201 194 185 176 161 181 182 135 136 201 212 141 156 168 165 167 175 202 221 192 180 202 262 188 182 197 212 212 199 197 212 253 320 283 186 240 273 279 252 231 306 295 285 315 20 358 315 230 217 215 214 211 212
305 308 313 310 304 308 308 289 272 255 204 187 200 216 246 285 308 322 23 77 276 344 52 127 189 15 6 343 183 190 289 334 6 184 195 196 190 187 196 188 181 159 148 169 203 186 133 173 184 171 170 195 209 211 175 174 208 252 169 165 181 194 202 189 194 215 224 314 269 192 163 248 273 246 185 308 283 285 336 351 349 346 285 231 221 220 220 219
306 311 311 304 300 302 300 295 288 232 200 194 199 220 242 264 248 220 82 140 271 28 23 293 181 355 0 52 197 224 279 324 357 133 185 192 192 190 206 192 162 133 156 199 216 167 83 205 198 168 172 210 211 188 162 177 207 224 138 127 112 122 134 163 194 205 154 243 260 196 165 239 279 263 232 260 267 304 335 335 333 339 317 252 233 231 229 227
308 312 307 301 300 295 293 294 285 216 194 190 192 213 209 177 157 103 126 242 297 18 352 343 86 330 345 17 223 235 240 271 322 132 153 180 189 181 129 146 131 121 152 269 256 228 34 37 166 179 202 215 203 171 168 183 178 108 132 132 95 99 104 130 174 165 180 234 257 180 178 226 277 275 237 230 357 332 322 320 324 328 322 272 243 242 233 223
310 311 302 300 302 299 302 299 273 188 174 177 184 185 169 148 89 112 161 250 306 348 346 358 342 334 1 11 311 260 214 240 192 148 150 166 176 156 128 139 129 119 151 232 247 284 334 242 156 219 216 179 153 171 172 185 165 128 158 160 140 143 135 138 135 161 226 241 310 89 166 203 241 257 55 36 350 334 318 320 324 323 320 289 241 232 214 204
310 304 295 297 304 305 307 299 248 180 168 168 177 174 161 143 240 184 253 302 333 360 348 344 321 326 346 345 261 262 249 209 181 168 158 161 172 166 167 174 160 147 179 211 220 11 244 231 253 264 217 183 184 192 147 135 184 199 196 193 217 193 154 197 187 189 240 245 44 58 142 194 246 274 37 7 336 338 334 328 325 322 324 321 209 191 185 194
306 293 290 295 303 308 304 294 240 185 176 172 169 161 133 95 216 210 310 327 33 10 325 303 315 311 312 328 306 289 292 138 186 186 144 147 176 175 127 102 156 159 172 192 198 224 233 244 233 247 228 193 191 207 202 175 181 189 182 184 199 179 157 201 187 216 259 261 61 138 171 222 255 358 39 351 344 354 351 354 2 5 31 85 147 177 180 186
297 287 286 285 310 333 312 293 200 175 178 175 155 134 114 160 215 199 10 313 320 338 316 303 311 310 299 18 338 332 9 53 135 169 144 134 170 188 182 165 178 145 93 145 183 200 216 260 203 188 196 181 190 212 218 151 159 181 174 176 198 197 198 216 208 230 256 238 84 135 180 217 239 94 31 341 7 30 27 45 58 61 90 109 117 136 147 165
286 280 237 181 40 5 332 257 171 165 169 165 131 98 155 196 244 106 96 290 307 322 313 313 316 324 353 309 322 348 4 7 53 135 160 152 169 189 193 191 190 152 133 176 199 162 213 274 235 204 205 176 191 201 158 128 154 164 149 182 223 219 189 199 298 232 276 248 118 191 231 246 253 44 23 349 55 67 63 73 77 73 85 100 105 107 106 111
273 245 167 138 60 35 34 125 158 159 162 160 112 87 190 224 247 151 128 302 326 329 314 318 30 24 355 324 320 351 342 353 40 127 170 170 182 177 180 196 183 177 176 179 185 153 188 270 265 266 232 200 204 189 164 189 190 131 179 201 203 217 138 126 104 70 36 254 221 187 269 274 251 44 53 67 93 89 76 76 87 90 93 96 98 104 114 119
248 190 164 140 79 63 63 84 133 153 160 153 105 173 228 238 191 185 114 311 285 342 337 337 12 25 1 329 312 333 331 345 36 237 164 164 214 164 176 204 177 195 204 192 209 212 205 256 250 205 215 219 253 189 156 191 143 137 198 183 124 94 97 124 224 89 169 248 247 111 283 293 279 237 99 91 88 97 92 87 98 103 105 110 108 110 129 142
182 163 158 144 108 83 70 70 98 142 153 125 80 230 238 158 202 230 268 313 281 32 49 279 326 19 16 318 292 321 323 336 15 341 170 181 227 130 148 199 173 208 224 206 215 204 203 255 263 203 217 342 2 177 142 124 158 174 237 139 138 215 186 147 207 201 215 240 231 135 265 266 240 193 151 121 96 113 119 110 110 105 110 124 127 134 147 152
152 147 137 140 136 102 76 59 73 126 134 106 219 242 230 244 255 252 264 304 125 125 22 246 252 356 343 276 276 310 317 325 359 344 192 203 212 145 5 338 153 345 264 197 199 147 162 247 246 178 220 307 43 207 194 173 168 89 140 155 281 278 213 169 181 202 234 239 213 196 244 235 212 136 131 129 119 137 143 129 114 109 121 132 133 140 152 158
152 137 108 142 155 127 75 37 50 101 105 128 215 127 232 269 285 280 283 288 218 210 257 193 170 299 287 276 276 273 289 299 300 281 249 199 181 181 24 36 38 351 42 179 195 140 114 231 235 215 252 257 210 242 260 200 180 182 187 189 182 139 86 176 148 64 254 221 174 215 245 193 89 94 138 157 140 131 136 133 121 112 123 148 160 157 155 168
154 124 100 155 165 146 60 22 43 76 68 148 219 182 252 303 302 293 298 282 232 239 242 205 213 256 275 295 285 265 296 287 241 284 263 69 33 173 72 41 357 324 74 154 176 193 163 187 221 246 266 256 211 78 232 243 273 234 217 215 191 158 164 198 205 152 338 250 163 209 252 116 97 209 180 185 173 134 127 128 125 119 116 131 157 168 169 174
154 116 130 163 168 161 52 22 40 51 70 160 289 250 264 314 290 291 321 312 231 237 224 216 240 240 232 256 275 290 310 292 249 4 321 33 41 13 335 339 301 257 266 159 161 168 154 140 176 222 257 267 285 83 124 138 98 95 60 315 200 155 184 216 225 187 145 208 99 147 261 103 111 250 175 171 185 138 128 125 125 126 126 124 129 142 156 161
139 114 137 160 168 168 53 37 18 359 343 310 315 260 250 286 276 303 341 344 267 235 220 235 234 232 217 232 281 309 317 312 285 52 3 27 55 10 345 346 273 205 157 116 116 27 135 142 167 198 284 310 277 120 124 134 135 118 61 37 14 279 276 254 247 176 160 174 143 197 225 135 110 219 137 140 165 140 135 132 130 130 125 116 102 97 106 120
116 102 122 156 167 155 38 93 40 2 318 329 349 322 290 255 236 298 318 323 341 272 233 301 235 257 309 253 268 290 315 332 329 49 54 116 49 359 356 6 2 217 209 201 191 187 239 232 162 179 164 167 165 163 183 169 124 74 42 18 360 15 37 196 138 131 201 189 167 220 216 98 33 173 131 132 135 116 104 110 116 112 101 95 96 100 116 122
114 96 106 150 168 173 38 130 150 99 252 337 350 348 343 261 237 310 293 302 339 281 245 312 261 291 350 306 271 308 2 9 297 16 21 272 32 1 354 2 0 331 329 158 153 150 175 340 119 199 205 200 183 176 213 201 58 59 35 9 11 26 5 268 149 183 219 187 164 222 201 100 145 151 131 131 117 88 69 71 80 80 78 83 95 104 113 116
127 110 95 144 183 224 53 124 135 123 144 330 348 346 358 343 319 335 291 246 351 344 248 330 327 18 10 4 10 1 12 330 263 28 11 330 4 349 348 358 350 335 354 118 138 135 113 46 97 135 201 232 220 59 324 357 349 271 360 3 9 11 333 259 174 195 184 152 179 223 112 120 147 148 139 134 107 84 70 65 69 73 77 85 94 96 95 97
131 144 140 139 181 206 77 87 73 85 126 186 102 350 346 334 328 345 31 82 6 10 62 28 23 51 31 8 17 349 343 332 356 33 5 346 337 277 339 5 335 335 352 90 129 105 112 116 131 97 65 2 338 359 349 46 62 39 14 4 7 7 353 193 208 322 96 159 198 164 122 135 143 147 143 127 100 87 76 67 70 77 81 91 101 101 92 88
129 142 144 145 159 135 85 87 89 102 109 154 50 344 349 1 351 353 341 319 4 15 27 64 43 56 57 9 21 336 341 351 20 13 349 355 340 301 348 115 299 344 353 355 28 48 127 127 145 131 93 62 52 60 90 96 86 61 42 24 13 17 32 74 55 348 352 298 210 126 132 125 101 93 95 98 101 98 91 84 84 86 85 89 97 95 82 77
125 125 127 137 127 90 113 135 138 122 96 38 25 3 355 5 357 338 285 301 7 16 18 27 27 46 51 17 33 13 4 17 15 2 354 2 358 330 343 181 252 354 352 351 21 19 108 103 139 147 105 74 63 62 86 108 104 69 48 31 21 33 52 69 63 28 28 44 82 119 120 92 58 61 67 77 96 98 93 87 79 75 75 78 81 80 76 74
144 138 133 128 102 69 89 122 136 129 57 6 43 23 344 2 360 337 293 288 6 360 11 23 24 54 51 20 24 38 19 15 339 311 332 2 4 315 320 136 76 342 338 349 360 332 340 119 138 141 119 81 48 48 58 86 106 82 50 25 17 35 51 50 40 24 29 66 105 122 115 80 53 70 75 73 82 88 86 78 70 65 67 74 77 76 74 76
163 159 151 140 103 16 20 63 70 120 49 5 37 358 349 14 4 334 287 256 315 342 6 13 27 103 76 20 359 243 252 252 262 274 286 298 293 291 309 111 140 316 331 346 342 335 9 114 135 163 157 116 39 39 44 58 93 80 44 14 1 14 27 10 15 19 5 54 130 136 121 97 93 89 82 76 77 82 80 72 70 72 71 73 76 76 75 76
162 162 159 152 113 357 18 82 58 101 113 136 227 278 293 315 343 338 289 296 297 193 309 271 185 141 85 229 239 268 278 279 287 288 279 273 278 287 289 257 218 237 294 337 330 337 33 124 130 176 172 119 47 16 21 36 141 65 23 346 329 347 3 350 16 22 355 341 157 143 93 104 126 110 94 85 78 77 74 70 73 79 78 77 76 76 78 79
Height
1506 1506 1505 1505 1505 1504 1504 1503 1502 1501 1501 1500 1500 1499 1499 1498 1498 1497 1497 1496 1496 1495 1495 1494 1494 1493 1492 1492 1491 1490 1489 1488 1486 1485 1485 1485 1485 1485 1485 1485 1486 1487 1487 1489 1490 1491 1492 1493 1495 1496 1497 1499 1500 1501 1502 1502 1503 1503 1504 1507 1505 1501 1502 1502 1501 1500 1499 1499 1498 1497 1498 1497 1494 1492 1492 1491 1491 1491 1491 1492 1492 1492 1493 1493 1494 1495 1496 1498
1505 1505 1505 1505 1504 1504 1503 1502 1502 1501 1500 1500 1499 1499 1498 1498 1497 1497 1497 1496 1495 1495 1494 1493 1493 1492 1492 1491 1490 1489 1488 1487 1485 1484 1484 1485 1485 1485 1484 1484 1485 1486 1487 1488 1489 1490 1491 1492 1494 1495 1497 1499 1500 1501 1502 1502 1503 1503 1506 1506 1500 1499 1501 1500 1499 1500 1500 1498 1497 1497 1497 1497 1495 1493 1492 1491 1490 1491 1491 1493 1494 1494 1494 1494 1494 1496 1497 1498
1505 1505 1504 1504 1504 1503 1502 1502 1501 1500 1499 1499 1498 1498 1498 1497 1497 1496 1496 1495 1495 1494 1493 1493 1492 1492 1491 1490 1489 1488 1487 1486 1485 1484 1484 1484 1484 1484 1484 1483 1484 1486 1487 1488 1489 1490 1491 1492 1493 1495 1497 1498 1499 1501 1501 1502 1502 1502 1505 1502 1498 1499 1500 1499 1500 1500 1500 1499 1497 1497 1496 1496 1494 1494 1493 1491 1491 1490 1490 1492 1494 1494 1494 1495 1495 1496 1498 1499
1504 1504 1504 1503 1503 1502 1502 1501 1500 1499 1499 1498 1498 1497 1497 1496 1496 1496 1495 1495 1494 1493 1493 1492 1492 1491 1490 1490 1489 1488 1487 1485 1484 1484 1484 1484 1484 1484 1483 1483 1484 1485 1486 1487 1488 1490 1491 1492 1493 1495 1496 1498 1500 1500 1501 1501 1502 1502 1501 1498 1498 1500 1499 1499 1500 1499 1499 1498 1498 1497 1495 1494 1493 1493 1492 1491 1491 1489 1489 1491 1492 1492 1493 1494 1495 1496 1498 1499
1503 1503 1503 1503 1502 1501 1501 1500 1499 1499 1498 1497 1497 1496 1496 1495 1495 1495 1494 1494 1493 1492 1492 1491 1491 1490 1490 1489 1489 1488 1487 1485 1484 1484 1484 1484 1484 1483 1483 1483 1484 1485 1486 1487 1488 1489 1490 1492 1493 1494 1496 1498 1499 1500 1500 1500 1501 1501 1498 1497 1499 1500 1499 1499 1498 1498 1498 1498 1497 1496 1495 1492 1491 1492 1491 1491 1491 1488 1488 1489 1489 1490 1490 1491 1492 1495 1497 1499
1503 1502 1502 1502 1501 1501 1500 1499 1498 1498 1497 1496 1496 1495 1495 1494 1494 1493 1493 1493 1492 1492 1491 1491 1490 1490 1489 1489 1488 1487 1487 1486 1483 1483 1483 1483 1483 1483 1483 1483 1484 1484 1485 1487 1488 1489 1490 1491 1493 1494 1495 1496 1498 1498 1499 1500 1501 1499 1496 1497 1499 1499 1499 1498 1498 1497 1497 1497 1497 1495 1494 1493 1491 1490 1489 1489 1489 1487 1487 1488 1488 1488 1489 1491 1492 1494 1496 1497
1502 1502 1502 1501 1501 1500 1499 1498 1497 1497 1496 1495 1495 1494 1494 1493 1493 1492 1492 1492 1491 1490 1490 1489 1489 1489 1488 1488 1487 1487 1487 1485 1483 1482 1482 1483 1483 1483 1483 1484 1484 1484 1485 1486 1487 1489 1490 1491 1492 1493 1494 1496 1497 1497 1498 1499 1500 1498 1496 1497 1498 1498 1498 1497 1497 1496 1496 1496 1495 1495 1493 1492 1492 1490 1488 1487 1486 1486 1486 1486 1487 1488 1490 1493 1494 1494 1495 1496
1502 1501 1501 1500 1500 1499 1498 1497 1496 1496 1495 1494 1494 1493 1493 1492 1492 1491 1491 1490 1490 1489 1489 1488 1488 1488 1487 1487 1486 1485 1485 1483 1482 1482 1482 1482 1482 1483 1483 1484 1484 1484 1485 1486 1487 1488 1489 1490 1491 1492 1493 1494 1495 1496 1497 1499 1499 1497 1496 1497 1497 1497 1497 1496 1496 1495 1494 1494 1494 1494 1492 1490 1491 1490 1487 1486 1485 1485 1485 1486 1487 1489 1491 1493 1495 1495 1496 1497
1501 1500 1500 1499 1498 1498 1497 1496 1495 1494 1493 1493 1492 1492 1492 1491 1491 1490 1489 1489 1488 1488 1487 1487 1487 1486 1486 1486 1486 1485 1482 1481 1481 1481 1481 1481 1482 1482 1483 1483 1484 1485 1485 1486 1487 1488 1489 1490 1490 1491 1492 1493 1494 1495 1496 1498 1497 1496 1496 1496 1496 1495 1495 1496 1495 1493 1493 1492 1493 1492 1489 1489 1490 1489 1486 1484 1484 1484 1485 1486 1487 1489 1491 1493 1495 1496 1496 1496
1500 1499 1498 1498 1497 1496 1495 1495 1494 1493 1492 1491 1491 1490 1490 1490 1489 1489 1488 1488 1487 1487 1486 1486 1485 1485 1485 1485 1486 1485 1481 1480 1481 1481 1481 1481 1481 1482 1483 1484 1484 1485 1485 1486 1487 1488 1489 1489 1490 1491 1491 1492 1493 1494 1495 1496 1495 1494 1495 1496 1495 1495 1494 1494 1493 1492 1492 1491 1491 1491 1488 1488 1490 1489 1485 1483 1484 1484 1485 1487 1488 1489 1491 1492 1494 1496 1496 1496
1498 1498 1497 1496 1496 1495 1494 1493 1492 1491 1491 1490 1490 1489 1489 1488 1488 1487 1487 1486 1486 1485 1485 1484 1484 1484 1483 1483 1485 1483 1480 1480 1480 1480 1481 1481 1481 1482 1483 1483 1484 1485 1485 1486 1487 1488 1488 1489 1491 1491 1491 1492 1493 1494 1494 1494 1494 1494 1495 1494 1494 1494 1493 1493 1492 1491 1491 1489 1488 1489 1488 1488 1490 1488 1484 1483 1484 1485 1485 1486 1488 1489 1491 1492 1494 1495 1495 1496
1497 1496 1496 1495 1494 1493 1492 1492 1491 1490 1489 1489 1488 1487 1487 1487 1486 1486 1486 1485 1484 1484 1483 1483 1482 1482 1482 1481 1481 1480 1478 1479 1480 1480 1481 1481 1481 1482 1482 1483 1484 1485 1485 1486 1487 1487 1488 1489 1491 1491 1491 1491 1492 1494 1493 1493 1494 1493 1494 1493 1493 1492 1491 1491 1490 1490 1490 1487 1486 1488 1489 1487 1487 1486 1483 1484 1485 1485 1485 1485 1487 1489 1491 1492 1494 1494 1495 1496
1496 1495 1494 1494 1493 1492 1491 1490 1489 1488 1488 1487 1487 1486 1485 1485 1485 1484 1484 1484 1483 1482 1482 1481 1481 1480 1480 1479 1477 1477 1477 1478 1478 1479 1480 1480 1481 1481 1482 1483 1484 1485 1485 1486 1487 1487 1488 1488 1490 1491 1491 1491 1492 1492 1492 1492 1493 1492 1493 1493 1493 1493 1491 1490 1490 1489 1488 1486 1484 1488 1491 1487 1483 1483 1483 1484 1485 1486 1486 1485 1486 1488 1490 1492 1493 1493 1494 1495
1495 1494 1493 1492 1491 1490 1490 1489 1488 1487 1487 1486 1485 1484 1483 1483 1483 1482 1482 1482 1481 1481 1480 1480 1479 1479 1478 1476 1475 1475 1475 1476 1476 1477 1478 1479 1480 1481 1482 1483 1483 1484 1485 1486 1486 1487 1487 1488 1489 1490 1491 1491 1491 1491 1492 1492 1492 1492 1492 1493 1497 1497 1492 1488 1489 1489 1487 1486 1484 1486 1491 1486 1481 1483 1483 1484 1485 1485 1486 1485 1486 1487 1489 1491 1491 1492 1493 1494
1494 1493 1492 1491 1490 1489 1488 1488 1487 1486 1486 1485 1484 1483 1482 1481 1481 1480 1480 1480 1480 1479 1478 1478 1478 1477 1476 1473 1473 1473 1473 1474 1474 1475 1476 1476 1478 1480 1481 1482 1483 1483 1485 1486 1486 1486 1486 1487 1489 1490 1490 1490 1491 1491 1492 1492 1493 1494 1494 1495 1499 1498 1494 1490 1489 1489 1487 1486 1485 1486 1490 1485 1481 1483 1483 1483 1485 1485 1485 1486 1486 1487 1488 1489 1490 1491 1492 1493
1493 1492 1491 1490 1489 1488 1487 1486 1486 1485 1485 1484 1483 1481 1480 1480 1479 1479 1479 1478 1478 1478 1478 1477 1476 1477 1475 1472 1472 1472 1472 1473 1473 1474 1474 1475 1477 1478 1480 1481 1482 1483 1484 1485 1486 1486 1486 1487 1489 1490 1490 1490 1490 1491 1493 1494 1494 1496 1496 1496 1497 1497 1496 1492 1488 1489 1488 1486 1486 1486 1488 1485 1481 1483 1483 1483 1485 1485 1485 1485 1485 1486 1487 1488 1489 1490 1491 1492
1491 1490 1489 1489 1488 1487 1486 1485 1485 1484 1483 1483 1481 1480 1479 1478 1477 1477 1477 1477 1477 1476 1476 1476 1475 1476 1474 1471 1471 1471 1472 1472 1473 1474 1474 1474 1476 1477 1478 1480 1481 1482 1484 1485 1486 1486 1486 1487 1488 1489 1490 1490 1491 1492 1495 1498 1496 1497 1497 1496 1497 1498 1498 1495 1489 1488 1488 1487 1487 1487 1488 1485 1480 1481 1483 1483 1484 1485 1485 1484 1484 1485 1486 1487 1488 1489 1489 1490
1490 1489 1488 1487 1487 1486 1485 1484 1484 1483 1482 1481 1480 1479 1478 1477 1477 1476 1476 1475 1475 1475 1476 1474 1475 1476 1471 1468 1470 1470 1471 1472 1472 1473 1473 1474 1474 1476 1477 1479 1480 1481 1483 1484 1485 1486 1486 1487 1488 1488 1490 1491 1491 1492 1495 1496 1494 1495 1496 1496 1497 1498 1498 1498 1493 1488 1488 1487 1487 1488 1488 1484 1479 1478 1481 1482 1482 1483 1483 1483 1483 1484 1485 1486 1487 1487 1488 1488
1488 1487 1487 1486 1485 1485 1484 1483 1482 1482 1481 1480 1479 1478 1477 1477 1476 1475 1475 1475 1474 1474 1473 1472 1473 1472 1468 1467 1469 1470 1470 1471 1472 1472 1472 1473 1473 1474 1476 1478 1480 1481 1482 1483 1484 1485 1486 1486 1488 1488 1489 1489 1490 1490 1490 1491 1491 1492 1495 1495 1496 1496 1495 1497 1495 1490 1489 1488 1486 1485 1485 1482 1478 1476 1477 1480 1481 1482 1482 1482 1483 1483 1483 1484 1485 1485 1486 1486
1487 1486 1486 1485 1484 1483 1482 1482 1481 1480 1480 1479 1478 1478 1477 1477 1475 1474 1474 1472 1471 1470 1469 1469 1469 1467 1466 1466 1468 1469 1470 1471 1471 1471 1471 1471 1472 1473 1476 1478 1479 1480 1481 1482 1484 1485 1486 1487 1487 1486 1485 1487 1489 1488 1488 1490 1491 1492 1494 1494 1494 1494 1493 1494 1494 1489 1488 1490 1485 1482 1483 1482 1479 1474 1473 1477 1479 1480 1480 1481 1481 1481 1481 1481 1482 1483 1484 1484
1486 1485 1484 1484 1483 1482 1481 1480 1480 1479 1479 1478 1478 1477 1477 1477 1476 1475 1473 1468 1466 1467 1466 1466 1466 1464 1464 1466 1466 1467 1469 1470 1469 1470 1470 1470 1471 1472 1474 1477 1478 1480 1481 1481 1483 1485 1486 1487 1485 1483 1485 1486 1487 1488 1489 1491 1492 1493 1493 1494 1493 1492 1492 1492 1492 1488 1489 1490 1485 1483 1485 1481 1477 1473 1470 1474 1477 1477 1476 1477 1477 1476 1477 1477 1478 1480 1481 1482
1484 1483 1483 1482 1481 1481 1480 1479 1479 1478 1478 1478 1477 1477 1477 1477 1476 1476 1474 1468 1464 1464 1464 1463 1463 1461 1461 1463 1464 1466 1469 1469 1468 1468 1469 1470 1470 1471 1473 1476 1477 1478 1481 1482 1483 1486 1487 1486 1482 1483 1485 1486 1487 1489 1490 1491 1493 1493 1493 1495 1493 1491 1491 1490 1489 1489 1489 1489 1484 1483 1485 1479 1473 1471 1469 1472 1474 1473 1472 1472 1472 1472 1472 1473 1474 1476 1479 1480
1483 1482 1482 1481 1480 1480 1478 1478 1477 1477 1477 1477 1477 1477 1477 1477 1476 1475 1475 1471 1464 1461 1461 1461 1461 1459 1459 1460 1461 1463 1466 1466 1465 1465 1466 1468 1468 1470 1472 1474 1476 1478 1481 1481 1481 1485 1487 1483 1480 1482 1485 1485 1488 1490 1490 1491 1492 1493 1493 1494 1492 1491 1494 1492 1488 1489 1488 1488 1484 1483 1484 1478 1472 1469 1467 1470 1471 1470 1470 1469 1469 1469 1469 1468 1470 1472 1474 1475
1481 1480 1480 1479 1479 1478 1477 1476 1476 1476 1476 1476 1476 1476 1477 1476 1476 1475 1474 1471 1466 1461 1459 1459 1459 1458 1458 1458 1458 1459 1461 1462 1462 1461 1463 1465 1466 1469 1470 1471 1475 1478 1478 1477 1479 1482 1482 1480 1479 1482 1484 1483 1487 1490 1491 1490 1490 1492 1492 1491 1490 1490 1492 1490 1488 1488 1486 1485 1485 1485 1484 1476 1471 1470 1466 1466 1470 1468 1468 1467 1466 1466 1466 1466 1468 1469 1470 1470
1480 1479 1478 1478 1477 1476 1476 1475 1474 1475 1475 1475 1476 1476 1476 1476 1475 1475 1474 1472 1467 1461 1459 1459 1458 1458 1457 1457 1457 1458 1459 1459 1457 1457 1460 1462 1464 1467 1469 1471 1474 1475 1476 1478 1480 1481 1479 1479 1480 1482 1484 1484 1485 1488 1489 1488 1488 1490 1489 1487 1486 1486 1487 1487 1489 1490 1487 1486 1485 1485 1485 1476 1469 1469 1466 1465 1468 1466 1465 1465 1463 1463 1463 1464 1466 1466 1467 1469
1478 1478 1477 1476 1475 1475 1474 1473 1473 1474 1474 1475 1475 1475 1476 1475 1476 1475 1474 1475 1469 1459 1458 1459 1458 1457 1456 1456 1457 1457 1459 1457 1454 1455 1459 1461 1462 1464 1467 1470 1471 1472 1475 1478 1480 1479 1478 1479 1480 1482 1484 1484 1485 1486 1486 1486 1488 1489 1484 1481 1482 1483 1485 1489 1490 1489 1488 1486 1484 1485 1487 1480 1469 1465 1465 1467 1466 1464 1464 1464 1462 1461 1461 1462 1463 1463 1464 1467
1477 1476 1476 1475 1473 1473 1473 1472 1473 1473 1473 1474 1475 1475 1476 1475 1476 1475 1474 1477 1470 1459 1458 1459 1458 1457 1456 1456 1456 1456 1458 1455 1453 1454 1457 1459 1461 1462 1465 1468 1470 1471 1473 1478 1481 1478 1476 1479 1481 1481 1483 1485 1485 1484 1483 1484 1486 1485 1479 1479 1481 1482 1486 1488 1488 1487 1485 1484 1483 1483 1484 1484 1474 1465 1466 1469 1465 1460 1461 1462 1461 1460 1460 1461 1462 1463 1463 1464
1475 1475 1474 1473 1472 1471 1471 1471 1472 1472 1473 1474 1474 1475 1475 1475 1476 1475 1476 1478 1468 1457 1458 1459 1458 1457 1456 1456 1456 1454 1454 1453 1453 1455 1455 1458 1461 1462 1463 1465 1465 1468 1470 1474 1477 1474 1473 1477 1478 1478 1482 1484 1481 1478 1479 1481 1482 1479 1477 1480 1480 1481 1484 1484 1486 1486 1487 1488 1484 1480 1482 1484 1476 1464 1465 1468 1463 1458 1459 1461 1461 1460 1461 1461 1461 1463 1463 1465
1474 1473 1473 1472 1471 1470 1470 1470 1471 1471 1472 1473 1474 1474 1475 1476 1476 1476 1479 1477 1464 1457 1458 1458 1457 1458 1457 1456 1456 1454 1453 1453 1454 1455 1455 1458 1460 1461 1462 1462 1463 1468 1469 1469 1471 1471 1472 1474 1474 1475 1478 1477 1474 1474 1476 1478 1478 1476 1477 1480 1480 1482 1484 1485 1486 1485 1489 1492 1483 1477 1481 1483 1475 1462 1460 1464 1462 1463 1463 1462 1461 1461 1461 1462 1463 1464 1466 1470
1472 1472 1471 1470 1469 1469 1469 1469 1470 1470 1471 1472 1473 1474 1475 1476 1476 1479 1482 1474 1462 1459 1458 1457 1458 1458 1457 1456 1454 1454 1454 1453 1453 1454 1456 1457 1460 1460 1461 1463 1465 1468 1470 1470 1470 1471 1472 1473 1473 1473 1473 1470 1470 1473 1474 1475 1475 1475 1477 1478 1480 1484 1484 1486 1487 1485 1490 1490 1479 1476 1478 1480 1479 1465 1458 1463 1466 1469 1469 1464 1463 1462 1462 1463 1464 1466 1468 1472
1471 1470 1469 1468 1468 1468 1468 1468 1469 1470 1471 1472 1473 1474 1475 1476 1479 1482 1479 1468 1462 1461 1458 1458 1459 1458 1458 1458 1456 1453 1453 1453 1452 1453 1456 1457 1459 1460 1461 1463 1466 1470 1473 1473 1472 1473 1473 1473 1472 1469 1468 1469 1470 1472 1475 1475 1475 1476 1477 1477 1481 1484 1484 1486 1487 1488 1491 1485 1479 1481 1480 1482 1481 1466 1460 1468 1469 1469 1469 1466 1464 1463 1463 1463 1464 1466 1468 1470
1469 1469 1468 1467 1467 1467 1467 1468 1468 1469 1470 1471 1472 1473 1474 1478 1480 1479 1472 1464 1464 1464 1461 1462 1460 1458 1459 1459 1457 1453 1451 1452 1452 1452 1453 1455 1457 1459 1459 1460 1464 1471 1477 1475 1473 1474 1472 1470 1469 1467 1466 1468 1469 1471 1475 1476 1477 1477 1478 1480 1483 1485 1488 1490 1487 1489 1488 1480 1482 1487 1483 1482 1475 1463 1465 1471 1468 1467 1467 1466 1465 1464 1463 1463 1464 1465 1467 1468
1468 1467 1467 1467 1466 1467 1467 1467 1468 1469 1469 1471 1472 1472 1475 1478 1477 1474 1471 1467 1466 1466 1465 1464 1461 1459 1459 1457 1454 1452 1451 1451 1451 1451 1452 1454 1457 1458 1458 1459 1459 1464 1472 1475 1475 1475 1472 1468 1467 1468 1466 1464 1466 1469 1471 1473 1475 1475 1475 1478 1481 1484 1493 1496 1492 1492 1487 1478 1484 1488 1483 1479 1469 1465 1470 1471 1467 1468 1467 1466 1465 1464 1463 1463 1464 1465 1466 1468
1467 1466 1466 1466 1466 1466 1467 1467 1467 1468 1469 1470 1471 1473 1476 1477 1475 1473 1473 1471 1469 1467 1466 1465 1463 1459 1458 1456 1454 1453 1452 1452 1451 1451 1452 1455 1459 1460 1459 1460 1460 1460 1466 1474 1476 1475 1476 1472 1465 1464 1463 1460 1461 1462 1462 1465 1470 1472 1470 1471 1474 1474 1481 1486 1482 1482 1479 1476 1483 1487 1481 1475 1468 1468 1472 1469 1467 1468 1467 1467 1466 1464 1464 1464 1465 1466 1467 1469
1466 1466 1466 1466 1466 1467 1466 1466 1467 1467 1469 1470 1471 1474 1475 1473 1474 1475 1474 1472 1470 1469 1466 1465 1463 1459 1457 1456 1456 1454 1453 1453 1452 1452 1453 1455 1457 1459 1458 1458 1459 1460 1463 1471 1475 1475 1478 1472 1459 1458 1460 1458 1458 1457 1457 1463 1468 1472 1471 1470 1472 1465 1465 1478 1483 1481 1479 1478 1482 1484 1478 1472 1468 1470 1470 1467 1468 1468 1468 1468 1467 1466 1466 1465 1466 1467 1468 1470
1465 1465 1466 1466 1467 1467 1466 1466 1467 1467 1468 1470 1471 1474 1474 1471 1473 1475 1473 1471 1471 1471 1468 1464 1461 1461 1461 1460 1458 1455 1453 1453 1453 1452 1454 1455 1455 1456 1457 1455 1457 1459 1459 1464 1471 1473 1475 1468 1457 1458 1459 1456 1457 1456 1456 1460 1463 1471 1472 1467 1466 1461 1460 1475 1488 1491 1488 1482 1482 1484 1477 1470 1469 1469 1469 1468 1468 1469 1470 1469 1468 1468 1467 1467 1468 1468 1468 1469
1465 1465 1466 1467 1467 1467 1467 1467 1467 1467 1469 1470 1471 1473 1475 1473 1472 1473 1472 1471 1471 1471 1470 1467 1463 1464 1466 1465 1461 1458 1454 1453 1453 1452 1454 1456 1455 1455 1455 1454 1455 1456 1454 1458 1464 1466 1468 1464 1457 1457 1457 1454 1456 1456 1456 1456 1458 1466 1468 1460 1460 1463 1463 1468 1478 1486 1488 1483 1482 1487 1484 1478 1473 1471 1471 1470 1470 1471 1471 1469 1469 1468 1467 1468 1470 1470 1469 1468
1464 1465 1466 1467 1468 1468 1468 1468 1468 1468 1469 1470 1472 1474 1475 1474 1472 1472 1471 1471 1471 1471 1471 1470 1467 1466 1468 1468 1464 1460 1457 1454 1454 1454 1455 1456 1455 1454 1454 1454 1454 1454 1453 1454 1459 1462 1465 1465 1458 1456 1457 1455 1455 1456 1457 1458 1457 1459 1459 1455 1458 1464 1465 1469 1475 1480 1483 1484 1483 1486 1489 1483 1473 1471 1472 1472 1473 1473 1471 1470 1470 1469 1469 1469 1470 1471 1470 1469
1464 1465 1466 1468 1468 1468 1469 1468 1469 1469 1469 1471 1473 1473 1474 1474 1471 1471 1471 1470 1471 1471 1471 1471 1469 1468 1468 1467 1464 1461 1460 1457 1456 1456 1456 1456 1455 1454 1454 1454 1454 1455 1454 1454 1457 1460 1464 1466 1461 1456 1456 1456 1454 1455 1456 1457 1457 1457 1457 1457 1458 1461 1462 1466 1470 1470 1473 1481 1483 1482 1481 1473 1466 1469 1473 1473 1473 1472 1472 1472 1470 1470 1470 1470 1471 1471 1471 1472
1464 1465 1466 1468 1468 1469 1469 1469 1469 1469 1470 1473 1474 1474 1474 1473 1471 1470 1470 1470 1470 1470 1470 1471 1471 1470 1468 1465 1464 1463 1461 1459 1457 1458 1457 1455 1455 1455 1454 1454 1454 1454 1454 1454 1457 1459 1462 1466 1464 1457 1454 1455 1456 1456 1457 1457 1457 1456 1458 1459 1459 1462 1463 1464 1468 1469 1469 1474 1481 1483 1475 1466 1469 1474 1474 1474 1473 1471 1472 1472 1471 1473 1472 1471 1472 1473 1472 1473
1464 1465 1467 1468 1469 1469 1469 1469 1470 1471 1472 1474 1475 1474 1474 1472 1470 1469 1469 1469 1469 1468 1469 1470 1469 1469 1468 1466 1465 1463 1461 1459 1458 1458 1458 1456 1456 1456 1455 1454 1454 1455 1455 1455 1456 1458 1460 1464 1465 1460 1456 1456 1456 1458 1458 1458 1458 1458 1457 1456 1456 1459 1462 1463 1470 1474 1471 1470 1476 1478 1469 1465 1474 1477 1474 1475 1473 1471 1472 1472 1472 1474 1473 1474 1474 1474 1475 1474
1464 1466 1468 1468 1469 1470 1470 1470 1472 1473 1473 1473 1473 1473 1473 1471 1471 1470 1468 1469 1468 1468 1468 1468 1468 1468 1468 1467 1466 1464 1462 1459 1457 1458 1459 1457 1457 1457 1455 1454 1454 1454 1455 1456 1456 1457 1458 1461 1464 1462 1459 1457 1457 1459 1460 1460 1461 1461 1459 1459 1458 1457 1456 1458 1464 1469 1473 1475 1476 1474 1468 1468 1478 1479 1474 1475 1473 1472 1473 1472 1473 1475 1475 1476 1476 1476 1477 1477
1464 1466 1468 1468 1469 1470 1470 1471 1473 1473 1473 1473 1472 1472 1472 1471 1471 1470 1469 1469 1468 1468 1468 1468 1467 1467 1466 1467 1466 1464 1463 1460 1457 1458 1459 1458 1457 1457 1455 1454 1454 1454 1454 1455 1456 1457 1458 1461 1463 1463 1460 1457 1455 1457 1459 1460 1461 1461 1462 1464 1464 1462 1459 1459 1459 1461 1468 1473 1472 1471 1469 1470 1477 1478 1475 1475 1475 1474 1474 1473 1474 1475 1476 1477 1478 1478 1479 1479
1465 1467 1468 1469 1470 1470 1470 1472 1473 1474 1474 1473 1472 1471 1471 1471 1471 1470 1469 1469 1468 1468 1468 1467 1467 1466 1466 1467 1466 1464 1463 1462 1459 1458 1459 1459 1457 1456 1455 1454 1454 1453 1452 1453 1455 1457 1460 1462 1463 1465 1467 1464 1462 1461 1459 1457 1460 1464 1467 1468 1467 1467 1466 1463 1461 1461 1464 1469 1469 1465 1465 1470 1477 1477 1475 1476 1475 1475 1476 1476 1476 1477 1478 1479 1479 1480 1481 1481
1465 1467 1469 1470 1470 1471 1471 1472 1473 1474 1474 1474 1473 1473 1472 1471 1470 1470 1470 1469 1469 1469 1468 1467 1467 1467 1467 1466 1466 1465 1464 1464 1462 1459 1460 1460 1456 1456 1456 1455 1454 1454 1452 1452 1453 1455 1461 1465 1465 1465 1469 1470 1468 1467 1464 1462 1464 1466 1470 1472 1471 1471 1470 1465 1461 1460 1462 1471 1471 1461 1461 1473 1479 1476 1475 1476 1476 1477 1478 1478 1478 1479 1480 1481 1480 1481 1481 1481
1464 1467 1470 1471 1471 1471 1471 1472 1472 1472 1474 1475 1474 1474 1474 1472 1470 1470 1469 1469 1469 1469 1469 1468 1466 1467 1467 1466 1466 1466 1465 1465 1463 1461 1463 1462 1458 1458 1459 1457 1457 1456 1454 1453 1452 1455 1463 1471 1470 1466 1466 1466 1465 1468 1471 1471 1470 1469 1472 1475 1474 1476 1476 1468 1461 1457 1460 1470 1470 1462 1465 1476 1479 1476 1476 1477 1477 1479 1480 1480 1480 1481 1482 1482 1482 1482 1482 1481
1463 1466 1469 1470 1470 1471 1472 1472 1472 1472 1473 1474 1474 1475 1475 1473 1472 1470 1469 1469 1469 1469 1469 1469 1468 1468 1469 1469 1469 1469 1467 1465 1463 1463 1465 1465 1462 1461 1460 1461 1461 1458 1455 1453 1453 1455 1461 1469 1472 1470 1471 1472 1471 1473 1475 1475 1476 1478 1479 1478 1476 1476 1475 1468 1464 1464 1463 1462 1462 1466 1472 1475 1476 1476 1476 1477 1480 1481 1482 1482 1483 1483 1484 1484 1483 1483 1483 1482
1463 1465 1467 1468 1469 1471 1472 1472 1473 1473 1474 1474 1475 1476 1475 1474 1473 1472 1471 1470 1469 1469 1469 1469 1470 1471 1472 1472 1471 1470 1468 1466 1465 1466 1467 1466 1464 1462 1459 1460 1461 1459 1456 1454 1453 1454 1458 1466 1472 1473 1476 1478 1476 1475 1476 1477 1481 1484 1483 1481 1479 1477 1474 1471 1474 1477 1472 1463 1462 1469 1474 1475 1477 1479 1479 1480 1482 1482 1484 1485 1485 1485 1486 1485 1485 1484 1484 1485
1463 1465 1467 1467 1468 1470 1472 1472 1473 1473 1474 1474 1475 1476 1475 1474 1473 1473 1472 1471 1470 1470 1469 1469 1471 1473 1473 1472 1471 1470 1470 1469 1469 1469 1468 1467 1467 1466 1461 1459 1460 1460 1459 1457 1455 1455 1458 1467 1472 1472 1475 1478 1477 1477 1477 1478 1481 1484 1485 1485 1482 1479 1476 1476 1477 1478 1475 1471 1471 1474 1476 1479 1483 1484 1484 1485 1485 1484 1485 1486 1486 1487 1487 1487 1487 1486 1487 1488
1463 1464 1466 1467 1469 1471 1472 1473 1473 1472 1474 1475 1475 1475 1475 1474 1474 1473 1473 1471 1471 1471 1471 1471 1472 1474 1474 1473 1472 1472 1473 1472 1472 1472 1470 1469 1470 1469 1466 1464 1464 1465 1463 1461 1459 1456 1457 1466 1471 1470 1472 1477 1478 1478 1478 1479 1481 1484 1487 1489 1485 1482 1480 1479 1479 1480 1477 1476 1478 1478 1479 1484 1488 1488 1488 1489 1487 1486 1488 1488 1489 1490 1490 1489 1489 1489 1490 1490
1462 1463 1464 1466 1469 1472 1472 1473 1473 1473 1474 1475 1475 1475 1475 1475 1475 1475 1473 1471 1472 1471 1471 1471 1472 1473 1474 1473 1472 1472 1472 1472 1472 1472 1471 1471 1471 1469 1468 1468 1469 1469 1466 1464 1463 1460 1458 1466 1472 1469 1468 1475 1480 1479 1479 1480 1480 1481 1488 1493 1491 1487 1485 1484 1484 1485 1483 1480 1480 1480 1480 1486 1491 1491 1490 1491 1490 1490 1491 1492 1492 1492 1492 1492 1492 1492 1493 1492
1462 1463 1464 1465 1468 1473 1473 1473 1474 1473 1473 1476 1476 1476 1476 1475 1475 1475 1473 1471 1471 1471 1471 1471 1471 1472 1473 1472 1471 1471 1469 1469 1469 1469 1469 1470 1469 1468 1468 1468 1469 1469 1468 1466 1467 1466 1463 1465 1469 1467 1467 1475 1482 1480 1479 1479 1477 1480 1490 1497 1496 1492 1489 1487 1486 1487 1487 1485 1483 1482 1484 1488 1492 1492 1492 1494 1494 1493 1494 1495 1495 1495 1495 1494 1495 1495 1496 1495